Astoria, OR

10:52 PM PDT on April 23, 2018 (GMT -0700)
Astoria Regional

Weather History for KAST - December, 2012

Change the Weather History Date:

Saturday, December 1, 2012

  Actual Average Record
Temperature  
Mean Temperature 51 °F 44 °F  
Max Temperature 54 °F 50 °F 62 °F (1958)
Min Temperature 48 °F 38 °F 22 °F (1985)
Degree Days  
Heating Degree Days 14 21  
Month to date heating degree days 14 21  
Since 1 July heating degree days 1419 1434  
Cooling Degree Days 0 0  
Month to date cooling degree days 0 0  
Year to date cooling degree days 25 12  
Growing Degree Days 1 (Base 50)    
Moisture  
Dew Point 45 °F    
Average Humidity 82    
Maximum Humidity 93    
Minimum Humidity 71    
Precipitation  
Precipitation 0.99 in 0.36 in 2.66 in (1932)
Month to date precipitation 0.99 0.36  
Year to date precipitation 77.71 57.73  
Snow  
Snow 0.00 in - - ()
Snow Depth 0.00 in    
Sea Level Pressure  
Sea Level Pressure 29.47 in    
Wind  
Wind Speed 14 mph (South)    
Max Wind Speed 28 mph    
Max Gust Speed 43 mph    
Visibility 8 miles    
Events Rain , Thunderstorm    
T = Trace of Precipitation, MM = Missing Value Source: NWS Daily Summary

Daily Weather History Graph

Daily Weather History Graph

Search for Another Location

Airport or City:

Astronomy

Dec. 01, 2012 Rise Set
Actual Time 7:38 AM PST 4:31 PM PST
Civil Twilight 7:04 AM PST 5:05 PM PST
Nautical Twilight 6:26 AM PST 5:42 PM PST
Astronomical Twilight 5:50 AM PST 6:18 PM PST
Moon 7:29 PM PST (12/1) 9:52 AM PST (12/1)
Length of Visible Light 10h 01m
Length of Day
8h 52m
Waning Gibbous, 91% of the Moon is Illuminated
Dec 1
Waning Gibbous
Dec 6
Last Quarter
Dec 13
New
Dec 19
First Quarter
Dec 28
Full

Hourly Weather History & Observations

Time (PST) Temp. Dew Point Humidity Pressure Visibility Wind Dir Wind Speed Gust Speed Precip Events Conditions
12:37 AM 50.0 °F 46.4 °F 87% 29.37 in 5.0 mi South 10.4 mph 23.0 mph 0.10 in Rain Rain
12:55 AM 50.0 °F 46.9 °F 89% 29.37 in 6.0 mi South 12.7 mph 21.9 mph 0.12 in Rain Light Rain
1:43 AM 50.0 °F 48.2 °F 94% 29.39 in 2.5 mi SSW 15.0 mph 36.8 mph 0.17 in Rain Rain
1:55 AM 51.1 °F 48.0 °F 89% 29.40 in 4.0 mi SSW 20.7 mph 34.5 mph 0.19 in Rain Heavy Rain
2:03 AM 51.8 °F 48.2 °F 88% 29.40 in 6.0 mi SSW 23.0 mph 36.8 mph 0.01 in Rain Light Rain
2:23 AM 50.0 °F 46.4 °F 87% 29.43 in 5.0 mi SW 23.0 mph 42.6 mph 0.02 in Rain Light Rain
2:32 AM 48.2 °F 44.6 °F 87% 29.43 in 10.0 mi SW 17.3 mph 33.4 mph 0.03 in   Overcast
2:55 AM 48.9 °F 45.0 °F 86% 29.46 in 10.0 mi SSW 13.8 mph 20.7 mph 0.03 in   Mostly Cloudy
3:33 AM 50.0 °F 44.6 °F 82% 29.48 in 10.0 mi SSW 11.5 mph 26.5 mph N/A   Overcast
3:55 AM 50.0 °F 44.6 °F 82% 29.49 in 10.0 mi SSW 13.8 mph 25.3 mph N/A   Mostly Cloudy
4:25 AM 48.2 °F 42.8 °F 82% 29.51 in 10.0 mi SW 13.8 mph 24.2 mph 0.02 in   Mostly Cloudy
4:55 AM 50.0 °F 45.0 °F 83% 29.53 in 10.0 mi SSW 13.8 mph 23.0 mph 0.02 in   Mostly Cloudy
5:55 AM 51.1 °F 43.0 °F 74% 29.56 in 10.0 mi SSW 17.3 mph 28.8 mph N/A   Mostly Cloudy
6:55 AM 51.1 °F 44.1 °F 77% 29.59 in 10.0 mi SSW 16.1 mph 26.5 mph N/A   Overcast
7:55 AM 52.0 °F 43.0 °F 71% 29.60 in 10.0 mi South 13.8 mph 29.9 mph N/A   Overcast
8:55 AM 52.0 °F 45.0 °F 77% 29.62 in 7.0 mi South 13.8 mph 28.8 mph 0.00 in Rain Light Rain
9:55 AM 53.1 °F 45.0 °F 74% 29.62 in 10.0 mi South 20.7 mph 28.8 mph 0.00 in   Overcast
10:55 AM 53.1 °F 45.0 °F 74% 29.62 in 10.0 mi South 12.7 mph 32.2 mph 0.00 in   Overcast
11:55 AM 52.0 °F 45.0 °F 77% 29.62 in 4.0 mi South 17.3 mph 25.3 mph 0.00 in Rain Light Rain
12:55 PM 51.1 °F 46.0 °F 83% 29.60 in 8.0 mi South 15.0 mph 23.0 mph 0.03 in Rain Light Rain
1:15 PM 48.2 °F 44.6 °F 87% 29.60 in 7.0 mi SW 12.7 mph 25.3 mph 0.01 in Rain , Thunderstorm Light Rain
1:30 PM 51.8 °F 46.4 °F 82% 29.59 in 10.0 mi South 11.5 mph 19.6 mph 0.01 in Rain Light Rain
1:55 PM 53.1 °F 46.0 °F 77% 29.59 in 10.0 mi SSW 20.7 mph 31.1 mph 0.01 in   Overcast
2:55 PM 52.0 °F 46.0 °F 80% 29.57 in 10.0 mi South 16.1 mph 28.8 mph N/A   Scattered Clouds
3:55 PM 52.0 °F 45.0 °F 77% 29.55 in 10.0 mi South 17.3 mph 24.2 mph N/A   Partly Cloudy
4:55 PM 51.1 °F 44.1 °F 77% 29.52 in 10.0 mi South 6.9 mph 21.9 mph 0.00 in Rain Light Rain
5:55 PM 52.0 °F 42.1 °F 69% 29.49 in 10.0 mi South 9.2 mph - 0.00 in   Scattered Clouds
6:55 PM 51.1 °F 44.1 °F 77% 29.46 in 10.0 mi South 11.5 mph - 0.00 in Rain Light Rain
7:55 PM 51.1 °F 46.0 °F 83% 29.41 in 9.0 mi South 12.7 mph 21.9 mph 0.04 in Rain Light Rain
8:55 PM 50.0 °F 46.9 °F 89% 29.38 in 5.0 mi South 15.0 mph 25.3 mph 0.11 in Rain Light Rain
9:31 PM 48.2 °F 46.4 °F 93% 29.34 in 4.0 mi Calm Calm - 0.06 in Rain Heavy Rain
9:42 PM 48.2 °F 46.4 °F 93% 29.33 in 2.0 mi Variable 4.6 mph - N/A Rain Rain
9:53 PM 48.2 °F 46.4 °F 93% 29.34 in 4.0 mi Variable 5.8 mph - 0.16 in Rain Light Rain
9:55 PM 48.9 °F 46.9 °F 93% 29.34 in 6.0 mi SSE 8.1 mph - 0.16 in Rain Light Rain
10:09 PM 50.0 °F 46.4 °F 87% 29.31 in 9.0 mi South 17.3 mph 23.0 mph 0.01 in Rain Light Rain
10:55 PM 48.9 °F 46.0 °F 90% 29.28 in 9.0 mi SE 4.6 mph - 0.07 in Rain Light Rain
11:55 PM 48.0 °F 46.0 °F 93% 29.24 in 4.0 mi ESE 6.9 mph - 0.20 in Rain Rain